Weather History for Metlakatla, AK

Change the Weather History Date:

Tuesday, February 12, 2013

  Actual Average Record
Temperature  
Mean Temperature 40 °F -  
Max Temperature 42 °F 39 °F 53 °F (2004)
Min Temperature 39 °F 33 °F 28 °F (2000)
Degree Days  
Heating Degree Days 24    
Moisture  
Dew Point 35 °F    
Average Humidity 79    
Maximum Humidity 93    
Minimum Humidity 61    
Precipitation  
Precipitation 0.04 in - - ()
Sea Level Pressure  
Sea Level Pressure 29.87 in    
Wind  
Wind Speed 11 mph (West)    
Max Wind Speed 23 mph    
Max Gust Speed 28 mph    
Visibility 9 miles    
Events      
Averages and records for this station are not official NWS values.
T = Trace of Precipitation, MM = Missing Value Source: NWS Daily Summary

Daily Weather History Graph

Daily Weather History Graph

Search for Another Location

Airport:

Trip Planner

Search our weather history database for the weather conditions in past years. The results will help you decide how hot, cold, wet, or windy it might be!

Date:

Astronomy

Feb. 12, 2013 Rise Set
Actual Time 7:14 AM AKST 4:47 PM AKST
Civil Twilight 6:36 AM AKST 5:25 PM AKST
Nautical Twilight 5:53 AM AKST 6:08 PM AKST
Astronomical Twilight 5:11 AM AKST 6:50 PM AKST
Moon 7:39 AM AKST (2/12) 8:37 PM AKST (2/12)
Length of Visible Light 10h 48m
Length of Day
9h 32m
Waxing Crescent, 8% of the Moon is Illuminated
Feb 12
Waxing Crescent
Feb 17
First Quarter
Feb 25
Full
Mar 4
Last Quarter
Mar 11
New

Hourly Weather History & Observations

Time (AKST) Temp. Windchill Dew Point Humidity Pressure Visibility Wind Dir Wind Speed Gust Speed Precip Events Conditions
12:16 AM 41.0 °F 33.5 °F 37.4 °F 87% 29.80 in 6.0 mi SSE 13.8 mph 20.7 mph N/A   Overcast
12:36 AM 42.8 °F 36.2 °F 39.2 °F 87% 29.80 in 5.0 mi SSE 12.7 mph 26.5 mph N/A   Overcast
12:56 AM 42.8 °F 37.0 °F 39.2 °F 87% 29.79 in 5.0 mi South 10.4 mph 23.0 mph N/A   Overcast
1:16 AM 42.8 °F 36.2 °F 39.2 °F 87% 29.78 in 7.0 mi South 12.7 mph 21.9 mph N/A   Overcast
1:36 AM 42.8 °F 36.6 °F 39.2 °F 87% 29.77 in 6.0 mi South 11.5 mph 18.4 mph N/A   Overcast
1:56 AM 41.0 °F 35.2 °F 37.4 °F 87% 29.77 in 7.0 mi South 9.2 mph 19.6 mph N/A   Overcast
2:16 AM 42.8 °F 36.2 °F 37.4 °F 81% 29.76 in 10.0 mi South 12.7 mph 18.4 mph 0.01 in   Overcast
2:36 AM 42.8 °F 37.5 °F 39.2 °F 87% 29.75 in 9.0 mi South 9.2 mph 23.0 mph 0.01 in   Overcast
2:56 AM 42.8 °F 37.0 °F 39.2 °F 87% 29.74 in 8.0 mi South 10.4 mph 16.1 mph 0.01 in   Mostly Cloudy
3:16 AM 42.8 °F 38.6 °F 39.2 °F 87% 29.72 in 7.0 mi South 6.9 mph 18.4 mph N/A   Overcast
3:36 AM 42.8 °F 37.5 °F 39.2 °F 87% 29.71 in 9.0 mi South 9.2 mph 18.4 mph N/A   Overcast
3:56 AM 42.8 °F 37.0 °F 39.2 °F 87% 29.70 in 10.0 mi South 10.4 mph 19.6 mph N/A   Overcast
4:16 AM 42.8 °F 37.0 °F 39.2 °F 87% 29.70 in 9.0 mi South 10.4 mph 17.3 mph N/A   Overcast
4:36 AM 42.8 °F 36.6 °F 39.2 °F 87% 29.69 in 10.0 mi South 11.5 mph 18.4 mph N/A   Overcast
4:56 AM 42.8 °F 37.5 °F 39.2 °F 87% 29.68 in 9.0 mi South 9.2 mph 17.3 mph N/A   Overcast
5:16 AM 42.8 °F 38.6 °F 41.0 °F 93% 29.67 in 10.0 mi South 6.9 mph - N/A   Overcast
5:36 AM 42.8 °F 38.0 °F 41.0 °F 93% 29.67 in 7.0 mi South 8.1 mph 16.1 mph N/A   Overcast
5:56 AM 42.8 °F 38.6 °F 41.0 °F 93% 29.66 in 5.0 mi South 6.9 mph 16.1 mph N/A   Overcast
6:16 AM 42.8 °F 38.0 °F 41.0 °F 93% 29.65 in 4.0 mi SSW 8.1 mph - N/A   Overcast
6:36 AM 42.8 °F 38.0 °F 41.0 °F 93% 29.65 in 4.0 mi South 8.1 mph - N/A   Overcast
6:56 AM 42.8 °F 37.0 °F 41.0 °F 93% 29.64 in 5.0 mi SSW 10.4 mph - N/A   Overcast
7:16 AM 42.8 °F 38.0 °F 41.0 °F 93% 29.64 in 6.0 mi South 8.1 mph - N/A   Mostly Cloudy
7:36 AM 42.8 °F 39.3 °F 41.0 °F 93% 29.63 in 7.0 mi SSW 5.8 mph - N/A   Overcast
7:56 AM 42.8 °F 39.3 °F 39.2 °F 87% 29.63 in 7.0 mi SSW 5.8 mph - N/A   Overcast
8:16 AM 42.8 °F 39.3 °F 39.2 °F 87% 29.63 in 9.0 mi SSW 5.8 mph - N/A   Overcast
8:36 AM 42.8 °F 37.0 °F 39.2 °F 87% 29.63 in 9.0 mi WSW 10.4 mph - N/A   Overcast
8:56 AM 42.8 °F 35.8 °F 37.4 °F 81% 29.64 in 5.0 mi West 13.8 mph - N/A   Overcast
9:16 AM 41.0 °F 33.9 °F 35.6 °F 81% 29.65 in 9.0 mi West 12.7 mph - N/A   Overcast
9:36 AM 41.0 °F 36.4 °F 35.6 °F 81% 29.66 in 8.0 mi WSW 6.9 mph - 0.01 in   Overcast
9:56 AM 41.0 °F 33.1 °F 37.4 °F 87% 29.67 in 5.0 mi NNW 15.0 mph - 0.01 in   Overcast
10:16 AM 39.2 °F 29.6 °F 35.6 °F 87% 29.68 in 10.0 mi NW 19.6 mph 23.0 mph 0.01 in   Overcast
10:36 AM 39.2 °F 31.2 °F 35.6 °F 87% 29.70 in 10.0 mi NNW 13.8 mph - 0.01 in   Overcast
10:56 AM 39.2 °F 33.6 °F 35.6 °F 87% 29.71 in 10.0 mi North 8.1 mph - 0.01 in   Mostly Cloudy
11:16 AM 39.2 °F 31.6 °F 35.6 °F 87% 29.72 in 10.0 mi NNW 12.7 mph 17.3 mph N/A   Overcast
11:36 AM 39.2 °F 30.5 °F 35.6 °F 87% 29.73 in 10.0 mi NW 16.1 mph - N/A   Overcast
11:56 AM 39.2 °F 29.6 °F 35.6 °F 87% 29.75 in 10.0 mi NW 19.6 mph - N/A   Overcast
12:16 PM 39.2 °F 28.7 °F 35.6 °F 87% 29.76 in 10.0 mi NW 23.0 mph - N/A   Mostly Cloudy
12:36 PM 39.2 °F 28.7 °F 35.6 °F 87% 29.78 in 10.0 mi NNW 23.0 mph 27.6 mph N/A   Overcast
12:56 PM 41.0 °F 31.1 °F 35.6 °F 81% 29.80 in 10.0 mi NW 23.0 mph 26.5 mph N/A   Mostly Cloudy
1:16 PM 41.0 °F 31.6 °F 35.6 °F 81% 29.82 in 10.0 mi NNW 20.7 mph - N/A   Mostly Cloudy
1:36 PM 41.0 °F 32.2 °F 35.6 °F 81% 29.83 in 10.0 mi NNW 18.4 mph 21.9 mph N/A   Overcast
1:56 PM 41.0 °F 31.9 °F 33.8 °F 76% 29.85 in 10.0 mi NW 19.6 mph 23.0 mph N/A   Scattered Clouds
2:36 PM 41.0 °F 32.8 °F 35.6 °F 81% 29.89 in 10.0 mi NW 16.1 mph 20.7 mph N/A   Clear
2:56 PM 41.0 °F 33.5 °F 33.8 °F 76% 29.91 in 10.0 mi NW 13.8 mph - N/A   Partly Cloudy
3:16 PM 41.0 °F 32.8 °F 33.8 °F 76% 29.92 in 10.0 mi NNW 16.1 mph - N/A   Partly Cloudy
3:36 PM 42.8 °F 35.8 °F 33.8 °F 70% 29.94 in 10.0 mi NNW 13.8 mph - N/A   Clear
3:56 PM 42.8 °F 35.4 °F 32.0 °F 66% 29.96 in 10.0 mi NNW 15.0 mph - N/A   Clear
4:16 PM 41.0 °F 34.7 °F 32.0 °F 70% 29.98 in 10.0 mi NNW 10.4 mph - N/A   Partly Cloudy
4:36 PM 41.0 °F 33.5 °F 30.2 °F 65% 29.99 in 10.0 mi North 13.8 mph - N/A   Scattered Clouds
4:56 PM 41.0 °F 34.7 °F 32.0 °F 70% 30.01 in 10.0 mi North 10.4 mph - N/A   Scattered Clouds
5:16 PM 41.0 °F 34.7 °F 30.2 °F 65% 30.03 in 10.0 mi North 10.4 mph - N/A   Scattered Clouds
5:36 PM 41.0 °F 34.7 °F 30.2 °F 65% 30.04 in 10.0 mi NNW 10.4 mph - N/A   Partly Cloudy
5:56 PM 41.0 °F 35.2 °F 30.2 °F 65% 30.05 in 10.0 mi NW 9.2 mph - N/A   Partly Cloudy
6:16 PM 41.0 °F 34.7 °F 30.2 °F 65% 30.06 in 10.0 mi NW 10.4 mph - N/A   Scattered Clouds
6:36 PM 41.0 °F 35.2 °F 30.2 °F 65% 30.07 in 10.0 mi NNW 9.2 mph - N/A   Partly Cloudy
6:56 PM 39.2 °F 33.6 °F 30.2 °F 70% 30.08 in 10.0 mi NW 8.1 mph - N/A   Clear
7:16 PM 39.2 °F - 30.2 °F 70% 30.09 in 10.0 mi Calm Calm - N/A   Partly Cloudy
7:36 PM 39.2 °F - 30.2 °F 70% 30.11 in 10.0 mi Calm Calm - N/A   Scattered Clouds
7:56 PM 39.2 °F 32.0 °F 30.2 °F 70% 30.13 in 10.0 mi NW 11.5 mph - N/A   Partly Cloudy
8:16 PM 39.2 °F 33.0 °F 30.2 °F 70% 30.14 in 10.0 mi NW 9.2 mph - 0.01 in   Clear
8:36 PM 39.2 °F 31.6 °F 30.2 °F 70% 30.14 in 10.0 mi NW 12.7 mph - 0.01 in   Clear
8:56 PM 39.2 °F 32.5 °F 28.4 °F 65% 30.15 in 10.0 mi WNW 10.4 mph - 0.01 in   Clear
9:16 PM 39.2 °F 31.6 °F 28.4 °F 65% 30.17 in 10.0 mi West 12.7 mph - N/A   Scattered Clouds
9:36 PM 39.2 °F 32.5 °F 28.4 °F 65% 30.17 in 10.0 mi West 10.4 mph - N/A   Mostly Cloudy
9:56 PM 39.2 °F 33.6 °F 28.4 °F 65% 30.18 in 10.0 mi West 8.1 mph - N/A   Overcast
10:16 PM 39.2 °F 34.2 °F 28.4 °F 65% 30.19 in 10.0 mi West 6.9 mph - N/A   Overcast
10:36 PM 39.2 °F 33.6 °F 28.4 °F 65% 30.20 in 10.0 mi WNW 8.1 mph - N/A   Overcast
10:56 PM 39.2 °F 35.0 °F 28.4 °F 65% 30.21 in 10.0 mi West 5.8 mph - N/A   Overcast
11:16 PM 39.2 °F 34.2 °F 28.4 °F 65% 30.22 in 10.0 mi West 6.9 mph - N/A   Overcast
11:36 PM 41.0 °F 36.4 °F 28.4 °F 61% 30.23 in 10.0 mi West 6.9 mph - N/A   Overcast
11:56 PM 41.0 °F 36.4 °F 28.4 °F 61% 30.24 in 10.0 mi West 6.9 mph - N/A   Overcast